CZ-3C R/B, 44232

Orbit data source: Space-Track

CZ-3C R/B, 44232 is space debris in HEO originally from a launch on Fri, 17 May 2019 UTC launched from the Xichang Space Center, China (XSC). Debris objects in space refer to the collection of defunct objects orbiting the Earth. Examples of debris include non-operational satellites, rocket bodies, and fragments generated from explosions, collisions, or faulty payload assembly.

Loading next visibility...
Identifier
44232, 2019-027B
Orbit
HEO
Country
Flag of CNCN / PRC
Related business
Manufacturer
CALT
Mission
Spacecraft
Bus & Motor
CZ-3C STAGE 3, Unknown motor
Mass
~2,800 kg wet, ~2,800 kg dry
Launch date (UTC)
2019-05-17 (7 years ago)
Launch vehicle
Unknown
Launch site
Xichang Space Center, China (XSC)
Object type
Payload
Rocket body
Debris
Shape & HBR
Cyl + 1 Nozzle, 6.2 m
Radar Cross Section
32.704 m², Large (>1 m²)

Expand to show TLE details & history
Last TLE update: 2 days ago

TLE from 2 days ago
0 CZ-3C R/B
1 44232U 19027B   26171.20536719  .00020626  00000-0  13641-2 0  9997
2 44232  19.3285 210.6881 6331945 103.3540 330.1271  3.59972984 73113
Epoch: 2026-06-20T04:55Z
TLE epoch observation values (Epoch: 2026-06-20T04:55:43.725Z)
Latitude
0.00001°
Longitude
-131.5987°
Altitude
6,217.324 km
Speed
6.413 km/s
True Right ascension
14h 03m 01s
True Declination
0° 00' 00"
Sunlit
Object was in daylight at epoch
Visualization orbit readout
Latitude
Unknown
Longitude
Unknown
Altitude
Unknown
Speed
Unknown
Apparent Right ascension
Unknown
Apparent Declination
Unknown
Sunlit
N/A
Visualization observer readout
Local Sidereal Time
23:19:30
Azimuth
Unknown
Elevation
Unknown
Doppler factor
Unknown
Orbital elements
Apogee altitude
23,000.614 km
Perigee altitude
220.151 km
Semi-major axis
17,988.52 km
Eccentricity
0.63319
Inclination
19.3285°
RAAN
210.6881°
Arg. of periapsis
103.354°
True anomaly
256.6755°
Mean anomaly
330.1271°
Eccentric anomaly
298.13434°
Mean motion
0.8996 °/min
Orbital period
400.18 mins
BSTAR
0.0013641
Loading maneuver chart data...
Computing Atmospheric mass density...
Loading historical data...
Loading historical data...
Loading historical data...
Loading historical data...
Loading historical data...
Loading historical data...
Loading historical data...
Other satellites on launch #27 in the year 2019 (2019-05-17 UTC)

Documentation

Showing up to 5 results
|